OK1PHU-5 Weather Reports


Display with metric or nautical units.
time (UTC)temp
F
wind
direction
speed
MPH
gust
MPH
rain 1hr
in
rain 24hr
in
rain mn
in
humidity
%
barometer
mb
20260502180713 0 0 0.0 0.0 0.00 0.00 0.00 56 1016.3
20260502162707 0 0 0.0 0.0 0.00 0.00 0.00 55 1016.5
20260502161707 0 0 0.0 0.0 0.00 0.00 0.00 54 1016.6
20260502160707 0 0 0.0 0.0 0.00 0.00 0.00 56 1016.6
20260502151703 0 0 0.0 0.0 0.00 0.00 0.00 56 1017.2
20260502150703 0 0 0.0 0.0 0.00 0.00 0.00 56 1017.1
20260502130657 0 0 0.0 0.0 0.00 0.00 0.00 54 1018.1
20260502123654 0 0 0.0 0.0 0.00 0.00 0.00 54 1018.9
20260502122654 0 0 0.0 0.0 0.00 0.00 0.00 54 1019.0
20260502121654 0 0 0.0 0.0 0.00 0.00 0.00 56 1018.9
20260502120654 0 0 0.0 0.0 0.00 0.00 0.00 53 1018.9
20260502115654 0 0 0.0 0.0 0.00 0.00 0.00 57 1019.0
20260502114654 0 0 0.0 0.0 0.00 0.00 0.00 57 1019.2
20260502113650 0 0 0.0 0.0 0.00 0.00 0.00 55 1019.4
20260502112651 0 0 0.0 0.0 0.00 0.00 0.00 53 1019.2
20260502111650 0 0 0.0 0.0 0.00 0.00 0.00 54 1019.2
20260502110650 0 0 0.0 0.0 0.00 0.00 0.00 56 1019.1
20260502105650 0 0 0.0 0.0 0.00 0.00 0.00 50 1019.2
20260502104650 0 0 0.0 0.0 0.00 0.00 0.00 52 1019.3
20260502103647 0 0 0.0 0.0 0.00 0.00 0.00 53 1019.2
20260502102647 0 0 0.0 0.0 0.00 0.00 0.00 50 1019.7
20260502101647 0 0 0.0 0.0 0.00 0.00 0.00 49 1019.5
20260502100647 0 0 0.0 0.0 0.00 0.00 0.00 50 1019.6
20260502090644 0 0 0.0 0.0 0.00 0.00 0.00 47 1020.1
20260502070637 0 0 0.0 0.0 0.00 0.00 0.00 46 1020.0
20260502065637 0 0 0.0 0.0 0.00 0.00 0.00 45 1020.3
20260502064637 0 0 0.0 0.0 0.00 0.00 0.00 45 1019.9
20260502063634 0 0 0.0 0.0 0.00 0.00 0.00 51 1019.8
20260502062634 0 0 0.0 0.0 0.00 0.00 0.00 50 1019.8
20260502061634 0 0 0.0 0.0 0.00 0.00 0.00 51 1020.3
20260502060634 0 0 0.0 0.0 0.00 0.00 0.00 57 1020.9
20260502055634 0 0 0.0 0.0 0.00 0.00 0.00 59 1021.5
20260502054634 0 0 0.0 0.0 0.00 0.00 0.00 61 1021.9
20260502053631 0 0 0.0 0.0 0.00 0.00 0.00 64 1022.0
20260502052631 0 0 0.0 0.0 0.00 0.00 0.00 70 1022.7
20260502051631 0 0 0.0 0.0 0.00 0.00 0.00 74 1023.3
20260502050631 0 0 0.0 0.0 0.00 0.00 0.00 80 1023.6
20260502045631 0 0 0.0 0.0 0.00 0.00 0.00 86 1023.8
20260502044631 0 0 0.0 0.0 0.00 0.00 0.00 92 1024.6
20260502043628 0 0 0.0 0.0 0.00 0.00 0.00 99 1024.9
20260502042628 0 0 0.0 0.0 0.00 0.00 0.00 99 1025.6
20260502041628 0 0 0.0 0.0 0.00 0.00 0.00 99 1025.7
20260502040627 0 0 0.0 0.0 0.00 0.00 0.00 99 1025.6
20260502035627 0 0 0.0 0.0 0.00 0.00 0.00 99 1025.6
20260502034627 0 0 0.0 0.0 0.00 0.00 0.00 99 1025.6
20260502033624 0 0 0.0 0.0 0.00 0.00 0.00 99 1025.7
20260502032624 0 0 0.0 0.0 0.00 0.00 0.00 99 1025.6
20260502031624 0 0 0.0 0.0 0.00 0.00 0.00 99 1025.6
20260502030624 0 0 0.0 0.0 0.00 0.00 0.00 99 1025.4
20260502025624 0 0 0.0 0.0 0.00 0.00 0.00 99 1025.6
20260502024624 0 0 0.0 0.0 0.00 0.00 0.00 99 1025.7
20260502022621 0 0 0.0 0.0 0.00 0.00 0.00 99 1025.7
20260502021621 0 0 0.0 0.0 0.00 0.00 0.00 99 1025.7
20260502020621 0 0 0.0 0.0 0.00 0.00 0.00 99 1025.6
20260502015621 0 0 0.0 0.0 0.00 0.00 0.00 99 1025.6
20260502014621 0 0 0.0 0.0 0.00 0.00 0.00 99 1025.6
20260502013618 0 0 0.0 0.0 0.00 0.00 0.00 99 1025.7
20260502012618 0 0 0.0 0.0 0.00 0.00 0.00 99 1025.7
20260502011618 0 0 0.0 0.0 0.00 0.00 0.00 99 1025.8
20260502010618 0 0 0.0 0.0 0.00 0.00 0.00 99 1025.8
20260502005618 0 0 0.0 0.0 0.00 0.00 0.00 99 1025.8
20260502004618 0 0 0.0 0.0 0.00 0.00 0.00 99 1025.7
20260502003614 0 0 0.0 0.0 0.00 0.00 0.00 99 1025.8
20260502002614 0 0 0.0 0.0 0.00 0.00 0.00 99 1025.8
20260502001614 0 0 0.0 0.0 0.00 0.00 0.00 99 1025.8
20260502000614 0 0 0.0 0.0 0.00 0.00 0.00 99 1025.7
20260501235614 0 0 0.0 0.0 0.00 0.00 0.00 99 1025.8
20260501234614 0 0 0.0 0.0 0.00 0.00 0.00 99 1025.7
20260501233611 0 0 0.0 0.0 0.00 0.00 0.00 99 1025.7
20260501232611 0 0 0.0 0.0 0.00 0.00 0.00 99 1025.8
20260501231611 0 0 0.0 0.0 0.00 0.00 0.00 99 1025.7
20260501230611 0 0 0.0 0.0 0.00 0.00 0.00 99 1025.8
20260501225611 0 0 0.0 0.0 0.00 0.00 0.00 99 1025.8
20260501224611 0 0 0.0 0.0 0.00 0.00 0.00 99 1025.7
20260501223608 0 0 0.0 0.0 0.00 0.00 0.00 99 1025.8
20260501222608 0 0 0.0 0.0 0.00 0.00 0.00 99 1025.9
20260501221608 0 0 0.0 0.0 0.00 0.00 0.00 99 1025.7
20260501220608 0 0 0.0 0.0 0.00 0.00 0.00 99 1025.8
20260501215608 0 0 0.0 0.0 0.00 0.00 0.00 98 1025.6
20260501214608 0 0 0.0 0.0 0.00 0.00 0.00 99 1025.6
20260501213605 0 0 0.0 0.0 0.00 0.00 0.00 98 1025.6
20260501212605 0 0 0.0 0.0 0.00 0.00 0.00 96 1025.5
20260501211605 0 0 0.0 0.0 0.00 0.00 0.00 97 1025.4
20260501210605 0 0 0.0 0.0 0.00 0.00 0.00 94 1025.2
20260501205605 0 0 0.0 0.0 0.00 0.00 0.00 94 1025.4
20260501204605 0 0 0.0 0.0 0.00 0.00 0.00 94 1025.4
20260501203601 0 0 0.0 0.0 0.00 0.00 0.00 93 1025.5
20260501202601 0 0 0.0 0.0 0.00 0.00 0.00 90 1024.9
20260501201601 0 0 0.0 0.0 0.00 0.00 0.00 87 1024.9
20260501200601 0 0 0.0 0.0 0.00 0.00 0.00 88 1024.8
20260501195601 0 0 0.0 0.0 0.00 0.00 0.00 87 1024.8
20260501194601 0 0 0.0 0.0 0.00 0.00 0.00 84 1024.6
20260501192558 0 0 0.0 0.0 0.00 0.00 0.00 83 1024.5
20260501191558 0 0 0.0 0.0 0.00 0.00 0.00 81 1024.3
20260501190558 0 0 0.0 0.0 0.00 0.00 0.00 81 1024.1
20260501185558 0 0 0.0 0.0 0.00 0.00 0.00 79 1023.9
20260501184558 0 0 0.0 0.0 0.00 0.00 0.00 78 1023.8
20260501182555 0 0 0.0 0.0 0.00 0.00 0.00 70 1023.2